Location: G�ndlingen
(48.0142°N, 7.6396°E)
Time: 17:51:38
(UTC+00:00)

Cosmos 2219 Rocket - Pass Details

Date: 05 July 2020
Orbit: 827 x 848 km, 71.0° (Epoch: 12 August)

Event Time Altitude Azimuth Distance (km) Brightness Sun altitude
Rises 22:13:27 0° 228° (SW) 3,358 5.1 -17.0°
Reaches altitude 10° 22:16:00 10° 235° (SW) 2,430 4.4 -17.2°
Maximum altitude 22:21:17 42° 306° (NW) 1,167 3.3 -17.4°
Drops below altitude 10° 22:26:36 10° 18° (NNE) 2,453 5.4 -17.7°
Sets 22:29:12 0° 25° (NNE) 3,394 6.1 -17.8°
